Weather History for Lafayette, IN

Change the Weather History Date:

Wednesday, March 13, 2013

  Actual Average Record
Temperature  
Mean Temperature 28 °F 40 °F  
Max Temperature 33 °F 49 °F 78 °F (2007)
Min Temperature 22 °F 30 °F 6 °F (1968)
Degree Days  
Heating Degree Days 37 25  
Month to date heating degree days 412 360  
Since 1 July heating degree days 4747 4694  
Cooling Degree Days 0 0  
Month to date cooling degree days 0 0  
Year to date cooling degree days 0 0  
Moisture  
Dew Point 19 °F    
Average Humidity 69    
Maximum Humidity 88    
Minimum Humidity 49    
Precipitation  
Precipitation T in 0.08 in 0.71 in (1961)
Month to date precipitation 0.69 1.06  
Year to date precipitation 6.64 4.68  
Sea Level Pressure  
Sea Level Pressure 30.17 in    
Wind  
Wind Speed 12 mph (WNW)    
Max Wind Speed 22 mph    
Max Gust Speed 32 mph    
Visibility 6 miles    
Events Snow    
T = Trace of Precipitation, MM = Missing Value Source: NWS Daily Summary

Daily Weather History Graph

Daily Weather History Graph

Search for Another Location

Airport:

Trip Planner

Search our weather history database for the weather conditions in past years. The results will help you decide how hot, cold, wet, or windy it might be!

Date:

Astronomy

Mar. 13, 2013 Rise Set
Actual Time 8:02 AM EDT 7:52 PM EDT
Civil Twilight 7:35 AM EDT 8:19 PM EDT
Nautical Twilight 7:03 AM EDT 8:51 PM EDT
Astronomical Twilight 6:31 AM EDT 9:23 PM EDT
Moon 8:40 AM EDT (3/13) 10:09 PM EDT (3/13)
Length of Visible Light 12h 44m
Length of Day
11h 50m
Waxing Crescent, 4% of the Moon is Illuminated
Mar 13
Waxing Crescent
Mar 19
First Quarter
Mar 27
Full
Apr 3
Last Quarter
Apr 10
New

Hourly Weather History & Observations

Time (EDT) Temp. Windchill Dew Point Humidity Pressure Visibility Wind Dir Wind Speed Gust Speed Precip Events Conditions
12:40 AM 30.2 °F - 24.8 °F 80% 30.03 in 9.0 mi North - - 0.00 in Snow Light Snow
12:54 AM 30.0 °F - 23.0 °F 75% 30.06 in 8.0 mi North - - 0.00 in Snow Light Snow
1:45 AM 28.4 °F - 21.2 °F 74% 30.05 in 7.0 mi North - - 0.00 in Snow Light Snow
1:54 AM 27.0 °F - 21.9 °F 81% 30.06 in 2.0 mi North - - 0.00 in Snow Light Snow
2:09 AM 26.6 °F - 21.2 °F 80% 30.05 in 3.0 mi North - - 0.00 in Snow Light Snow
2:32 AM 26.6 °F - 21.2 °F 80% 30.05 in 9.0 mi North - - 0.00 in Snow Light Snow
2:50 AM 26.6 °F - 21.2 °F 80% 30.05 in 1.5 mi North - - 0.00 in Snow Light Snow
2:54 AM 25.0 °F - 21.0 °F 85% 30.07 in 1.2 mi North - - 0.00 in Snow Light Snow
2:58 AM 24.8 °F - 21.2 °F 86% 30.05 in 2.0 mi North - - 0.00 in Snow Light Snow
3:06 AM 26.6 °F - 19.4 °F 74% 30.05 in 9.0 mi North - - 0.00 in   Overcast
3:54 AM 26.1 °F - 19.9 °F 78% 30.07 in 10.0 mi North - - 0.00 in   Overcast
4:51 AM 24.8 °F - 19.4 °F 80% 30.05 in 2.0 mi North - - 0.00 in Snow Light Snow
4:54 AM 25.0 °F - 19.9 °F 81% 30.08 in 1.8 mi North - - 0.00 in Snow Light Snow
5:00 AM 24.8 °F - 19.4 °F 80% 30.06 in 3.0 mi North - - 0.00 in Snow Light Snow
5:54 AM 25.0 °F - 19.9 °F 81% 30.10 in 7.0 mi North - - 0.00 in Snow Light Snow
6:42 AM 24.8 °F 13.4 °F 21.2 °F 86% 30.10 in 2.5 mi WNW 12.7 mph - 0.00 in Snow Light Snow
6:50 AM 24.8 °F 14.0 °F 19.4 °F 80% 30.10 in 5.0 mi WNW 11.5 mph - 0.00 in Snow Light Snow
6:54 AM 25.0 °F 13.6 °F 19.9 °F 81% 30.12 in 5.0 mi WNW 12.7 mph - 0.00 in Snow Light Snow
7:54 AM 25.0 °F 14.2 °F 19.9 °F 81% 30.14 in 7.0 mi WNW 11.5 mph - 0.00 in Snow Light Snow
8:27 AM 24.8 °F 15.3 °F 21.2 °F 86% 30.13 in 1.5 mi WNW 9.2 mph - 0.00 in Snow Light Snow
8:29 AM 24.8 °F 14.0 °F 21.2 °F 86% 30.13 in 0.8 mi WNW 11.5 mph - 0.00 in Snow Light Snow
8:39 AM 24.8 °F 15.3 °F 21.2 °F 86% 30.13 in 1.0 mi WNW 9.2 mph - 0.00 in Snow Light Snow
8:54 AM 25.0 °F 14.2 °F 21.0 °F 85% 30.16 in 1.0 mi WNW 11.5 mph - 0.00 in   Overcast
9:22 AM 26.6 °F 15.7 °F 19.4 °F 74% 30.16 in 6.0 mi NW 12.7 mph 20.7 mph 0.00 in Snow Light Snow
9:39 AM 26.6 °F 15.7 °F 19.4 °F 74% 30.16 in 5.0 mi WNW 12.7 mph - 0.00 in   Haze
9:54 AM 26.1 °F 13.6 °F 19.0 °F 75% 30.19 in 10.0 mi NW 16.1 mph 20.7 mph 0.00 in   Mostly Cloudy
10:27 AM 26.6 °F 14.3 °F 19.4 °F 74% 30.18 in 10.0 mi WNW 16.1 mph 26.5 mph N/A   Mostly Cloudy
10:48 AM 26.6 °F 13.4 °F 19.4 °F 74% 30.19 in 1.5 mi NW 18.4 mph 27.6 mph 0.00 in Snow Light Snow
10:54 AM 26.1 °F 14.5 °F 21.9 °F 84% 30.22 in 1.5 mi WNW 13.8 mph 24.2 mph 0.00 in Snow Light Snow
10:58 AM 26.6 °F 14.7 °F 21.2 °F 80% 30.19 in 3.0 mi WNW 15.0 mph 21.9 mph 0.00 in Snow Light Snow
11:10 AM 26.6 °F 15.2 °F 19.4 °F 74% 30.20 in 3.0 mi WNW 13.8 mph 23.0 mph 0.00 in   Haze
11:17 AM 28.4 °F 17.5 °F 19.4 °F 69% 30.20 in 3.0 mi NW 13.8 mph 23.0 mph 0.00 in   Haze
11:54 AM 27.0 °F 13.9 °F 17.1 °F 66% 30.24 in 10.0 mi WNW 18.4 mph 29.9 mph 0.00 in   Overcast
12:54 PM 28.9 °F 16.5 °F 17.1 °F 61% 30.25 in 10.0 mi NW 18.4 mph 27.6 mph N/A   Mostly Cloudy
1:54 PM 28.9 °F 16.9 °F 17.1 °F 61% 30.28 in 10.0 mi NW 17.3 mph 27.6 mph N/A   Overcast
2:54 PM 30.0 °F 17.2 °F 18.0 °F 61% 30.28 in 10.0 mi NW 20.7 mph 25.3 mph 0.00 in   Overcast
3:54 PM 30.0 °F 19.1 °F 17.1 °F 59% 30.29 in 10.0 mi NW 15.0 mph 23.0 mph N/A   Overcast
4:54 PM 32.0 °F 21.6 °F 16.0 °F 52% 30.30 in 10.0 mi NW 15.0 mph 23.0 mph N/A   Overcast
5:54 PM 32.0 °F 20.8 °F 16.0 °F 52% 30.31 in 10.0 mi WNW 17.3 mph 25.3 mph N/A   Mostly Cloudy
6:54 PM 32.0 °F 22.5 °F 16.0 °F 52% 30.32 in 10.0 mi NW 12.7 mph 20.7 mph N/A   Scattered Clouds
7:54 PM 28.9 °F 19.8 °F 15.1 °F 56% 30.33 in 10.0 mi NW 10.4 mph - N/A   Clear
8:54 PM 28.0 °F 20.0 °F 15.1 °F 58% 30.35 in 10.0 mi NW 8.1 mph - N/A   Clear
9:54 PM 27.0 °F 18.7 °F 15.1 °F 61% 30.35 in 10.0 mi WNW 8.1 mph - N/A   Clear
10:54 PM 26.1 °F 19.4 °F 14.0 °F 60% 30.36 in 10.0 mi NW 5.8 mph - N/A   Clear
11:54 PM 26.1 °F 21.9 °F 15.1 °F 63% 30.36 in 10.0 mi NW 3.5 mph - N/A   Clear